Weather in Castlegar

Canada     49°18′06″N   117°39′08″W
temp.,
°C
wind,
m/s
gust,
m/s
humid.,
%
clouds,
%
prec.,
mm/h
press.,
hPa
HPBL,
m
13 april, tue
tue1323:00−3nne118673 0.3 103412
02:00−4nne228890 0.0 103538
05:00−6n22885 0.0 103643
08:00−2nne23690 0.0 1034226
11:00+5nne23345 0.0 10301246
14:00+8ne34280 0.0 10281844
17:00+8ne34330 0.0 10261562
20:000n21710 0.0 102912
14 april, wed
wed1423:00−3n22885 0.0 103033
02:00−4nnw22854 0.0 103044
05:00−4nnw23772 0.0 103049
08:00+1nne23560 0.0 1027216
11:00+9ne23320 0.0 1022840
14:00+13ne23310 0.0 10191305
17:00+12ne34385 0.0 10171248
20:00+4n22780 0.0 102128
15 april, thu
thu1523:00+1nnw22860 0.0 102334
02:000nnw22843 0.0 102433
05:00−1nnw22840 0.0 102438
08:00+5n23621 0.0 1022184
11:00+13ene12390 0.0 1019820
14:00+17ne22310 0.0 10171830
17:00+16ne22331 0.0 10171831
20:00+7n21710 0.0 102014
16 april, fri
fri1623:00+4n22870 0.0 102326
02:00+2nnw21860 0.0 102525
05:00+2nnw22850 0.0 102623
08:00+7nne12615 0.0 1025174
11:00+15e11385 0.0 1022867
14:00+19e11281 0.0 10212014
17:00+18ene12289 0.0 10202244
20:00+9nnw11593 0.0 102210
17 april, sat
sat1723:00+6n21775 0.0 102420
02:00+5nnw11822 0.0 102518
05:00+4nnw11840 0.0 102618
08:00+9nne11620 0.0 1024183
11:00+17sse12392 0.0 10221111
14:00+20s13295 0.0 10192469
17:00+20w132959 0.0 10172552
20:00+11nw1157100 0.0 101911